H1 CPF 2 NER 2020 11 29 9 334 01 glonass122 H2 1004103 9122 37139 2020 11 29 0 0 0 2020 12 2 23 45 0 900 1 1 0 0 0 1 H9 10 0 59182 0.00000 0 -23665608.993 -7605365.911 5396388.320 10 0 59182 900.00000 0 -22836883.795 -7353245.547 8453520.675 10 0 59182 1800.00000 0 -21626749.309 -7122532.171 11345060.264 10 0 59182 2700.00000 0 -20060088.099 -6965297.947 14014429.428 10 0 59182 3600.00000 0 -18173794.604 -6928450.562 16409476.719 10 0 59182 4500.00000 0 -16015358.804 -7051529.281 18483513.289 10 0 59182 5400.00000 0 -13641016.555 -7364831.767 20196232.028 10 0 59182 6300.00000 0 -11113546.966 -7887952.431 21514490.823 10 0 59182 7200.00000 0 -8499812.187 -8628794.233 22412944.947 10 0 59182 8100.00000 0 -5868145.115 -9583094.730 22874517.520 10 0 59182 9000.00000 0 -3285695.862 -10734484.524 22890700.928 10 0 59182 9900.00000 0 -815848.585 -12055073.132 22461685.906 10 0 59182 10800.00000 0 1484184.265 -13506534.931 21596318.723 10 0 59182 11700.00000 0 3565491.839 -15041646.934 20311890.328 10 0 59182 12600.00000 0 5389233.074 -16606211.594 18633764.424 10 0 59182 13500.00000 0 6927973.437 -18141282.517 16594854.265 10 0 59182 14400.00000 0 8166538.963 -19585599.173 14234960.379 10 0 59182 15300.00000 0 9102356.558 -20878128.775 11599983.550 10 0 59182 16200.00000 0 9745270.941 -21960610.275 8741029.227 10 0 59182 17100.00000 0 10116849.737 -22779995.732 5713420.783 10 0 59182 18000.00000 0 10249208.847 -23290689.241 2575640.317 10 0 59182 18900.00000 0 10183409.445 -23456492.607 -611783.530 10 0 59182 19800.00000 0 9967494.720 -23252178.851 -3787420.887 10 0 59182 20700.00000 0 9654248.554 -22664630.094 -6890098.824 10 0 59182 21600.00000 0 9298769.146 -21693493.852 -9860052.340 10 0 59182 22500.00000 0 8955957.675 -20351330.981 -12640048.422 10 0 59182 23400.00000 0 8678025.276 -18663248.845 -15176463.875 10 0 59182 24300.00000 0 8512120.868 -16666033.661 -17420298.475 10 0 59182 25200.00000 0 8498177.564 -14406815.865 -19328105.960 10 0 59182 26100.00000 0 8667066.882 -11941320.962 -20862826.392 10 0 59182 27000.00000 0 9039137.958 -9331774.993 -21994504.858 10 0 59182 27900.00000 0 9623203.873 -6644547.766 -22700882.921 10 0 59182 28800.00000 0 10416019.508 -3947628.130 -22967850.837 10 0 59182 29700.00000 0 11402275.803 -1308032.932 -22789750.563 10 0 59182 30600.00000 0 12555114.381 1210745.197 -22169521.615 10 0 59182 31500.00000 0 13837145.101 3551146.474 -21118684.287 10 0 59182 32400.00000 0 15201928.064 5663709.201 -19657157.419 10 0 59182 33300.00000 0 16595861.642 7508900.687 -17812910.894 10 0 59182 34200.00000 0 17960400.168 9058535.790 -15621456.330 10 0 59182 35100.00000 0 19234509.855 10296721.557 -13125182.919 10 0 59182 36000.00000 0 20357260.052 11220285.896 -10372548.979 10 0 59182 36900.00000 0 21270439.698 11838669.911 -7417143.558 10 0 59182 37800.00000 0 21921086.453 12173286.643 -4316635.903 10 0 59182 38700.00000 0 22263818.522 12256372.357 -1131633.850 10 0 59182 39600.00000 0 22262866.897 12129379.010 2075524.825 10 0 59182 40500.00000 0 21893718.204 11840977.302 5242022.021 10 0 59182 41400.00000 0 21144295.150 11444757.300 8305822.332 10 0 59182 42300.00000 0 20015621.872 10996727.384 11206921.181 10 0 59182 43200.00000 0 18521944.369 10552721.398 13888550.245 10 0 59182 44100.00000 0 16690300.358 10165827.841 16298313.431 10 0 59182 45000.00000 0 14559557.429 9883953.637 18389228.591 10 0 59182 45900.00000 0 12178961.643 9747628.526 20120652.994 10 0 59182 46800.00000 0 9606259.969 9788144.822 21459073.736 10 0 59182 47700.00000 0 6905478.063 10026111.791 22378747.920 10 0 59182 48600.00000 0 4144449.044 10470485.157 22862181.344 10 0 59182 49500.00000 0 1392198.579 11118111.012 22900438.397 10 0 59182 50400.00000 0 -1283703.296 11953800.895 22493279.669 10 0 59182 51300.00000 0 -3819713.153 12950931.924 21649127.550 10 0 59182 52200.00000 0 -6158702.043 14072543.707 20384863.525 10 0 59182 53100.00000 0 -8252063.026 15272883.108 18725463.970 10 0 59182 54000.00000 0 -10061454.014 16499329.779 16703484.149 10 0 59182 54900.00000 0 -11560107.422 17694620.169 14358402.450 10 0 59182 55800.00000 0 -12733656.504 18799276.223 11735839.170 10 0 59182 56700.00000 0 -13580448.497 19754137.338 8886665.836 10 0 59182 57600.00000 0 -14111335.649 20502890.667 5866022.485 10 0 59182 58500.00000 0 -14348956.428 20994495.738 2732261.578 10 0 59182 59400.00000 0 -14326539.532 21185404.039 -454162.085 10 0 59182 60300.00000 0 -14086282.422 21041483.138 -3631835.594 10 0 59182 61200.00000 0 -13677372.737 20539567.194 -6739545.949 10 0 59182 62100.00000 0 -13153734.956 19668570.657 -9717431.899 10 0 59182 63000.00000 0 -12571595.352 18430119.653 -12508109.797 10 0 59182 63900.00000 0 -11986965.353 16838674.798 -15057754.106 10 0 59182 64800.00000 0 -11453146.592 14921139.255 -17317114.123 10 0 59182 65700.00000 0 -11018360.074 12715966.390 -19242449.371 10 0 59182 66600.00000 0 -10723597.147 10271801.274 -20796367.141 10 0 59182 67500.00000 0 -10600781.363 7645708.877 -21948547.077 10 0 59182 68400.00000 0 -10671318.209 4901058.567 -22676339.161 10 0 59182 69300.00000 0 -10945094.572 2105148.756 -22965223.008 10 0 59182 70200.00000 0 -11419971.900 -673333.405 -22809118.418 10 0 59182 71100.00000 0 -12081797.360 -3366914.939 -22210539.125 10 0 59182 72000.00000 0 -12904936.127 -5911896.455 -21180584.130 10 0 59182 72900.00000 0 -13853306.372 -8250762.749 -19738763.687 10 0 59182 73800.00000 0 -14881877.284 -10334344.157 -17912659.945 10 0 59182 74700.00000 0 -15938570.323 -12123637.307 -15737425.558 10 0 59182 75600.00000 0 -16966485.973 -13591207.275 -13255127.024 10 0 59182 76500.00000 0 -17906363.241 -14722109.986 -10513943.146 10 0 59182 77400.00000 0 -18699167.836 -15514293.523 -7567232.728 10 0 59182 78300.00000 0 -19288698.123 -15978459.253 -4472489.169 10 0 59182 79200.00000 0 -19624095.922 -16137387.045 -1290202.855 10 0 59182 80100.00000 0 -19662152.377 -16024752.485 1917344.777 10 0 59182 81000.00000 0 -19369307.318 -15683486.665 5087329.470 10 0 59182 81900.00000 0 -18723253.614 -15163749.750 8157647.195 10 0 59182 82800.00000 0 -17714075.253 -14520606.879 11068163.723 10 0 59182 83700.00000 0 -16344868.540 -13811508.409 13761922.829 10 0 59182 84600.00000 0 -14631818.786 -13093685.067 16186286.346 10 0 59182 85500.00000 0 -12603729.148 -12421572.078 18293981.108 10 0 59183 0.00000 0 -10301022.450 -11844374.418 20044030.653 10 0 59183 900.00000 0 -7774259.459 -11403878.780 21402552.833 10 0 59183 1800.00000 0 -5082239.065 -11132604.803 22343407.605 10 0 59183 2700.00000 0 -2289761.420 -11052375.303 22848684.013 10 0 59183 3600.00000 0 534849.448 -11173362.429 22909018.583 10 0 59183 4500.00000 0 3322358.692 -11493649.066 22523741.479 10 0 59183 5400.00000 0 6005259.769 -11999320.202 21700850.572 10 0 59183 6300.00000 0 8520330.128 -12665077.251 20456816.902 10 0 59183 7200.00000 0 10810998.613 -13455346.109 18816228.252 10 0 59183 8100.00000 0 12829428.759 -14325829.431 16811280.339 10 0 59183 9000.00000 0 14538234.786 -15225435.642 14481127.581 10 0 59183 9900.00000 0 15911762.980 -16098502.341 11871107.659 10 0 59183 10800.00000 0 16936889.459 -16887220.334 9031855.777 10 0 59183 11700.00000 0 17613305.312 -17534157.089 6018326.004 10 0 59183 12600.00000 0 17953280.975 -17984775.086 2888738.311 10 0 59183 13500.00000 0 17980922.699 -18189841.317 -296529.375 10 0 59183 14400.00000 0 17730954.403 -18107629.235 -3476084.155 10 0 59183 15300.00000 0 17247076.780 -17705823.121 -6588676.015 10 0 59183 16200.00000 0 16579972.347 -16963047.077 -9574350.408 10 0 59183 17100.00000 0 15785038.914 -15869955.987 -12375575.827 10 0 59183 18000.00000 0 14919944.583 -14429843.208 -14938326.965 10 0 59183 18900.00000 0 14042104.454 -12658739.124 -17213104.978 10 0 59183 19800.00000 0 13206182.314 -10584994.733 -19155877.241 10 0 59183 20700.00000 0 12461719.739 -8248365.041 -20728920.019 10 0 59183 21600.00000 0 11850990.234 -5698626.884 -21901548.924 10 0 59183 22500.00000 0 11407167.415 -2993784.551 -22650723.381 10 0 59183 23400.00000 0 11152884.078 -197933.540 -22961512.987 10 0 59183 24300.00000 0 11099243.673 2621133.056 -22827415.592 10 0 59183 25200.00000 0 11245327.791 5394479.778 -22250518.939 10 0 59183 26100.00000 0 11578223.265 8054642.272 -21241500.131 10 0 59183 27000.00000 0 12073571.197 10538192.139 -19819459.842 10 0 59183 27900.00000 0 12696618.448 12788147.013 -18011591.122 10 0 59183 28800.00000 0 13403730.612 14756124.714 -15852685.933 10 0 59183 29700.00000 0 14144305.386 16404149.949 -13384486.003 10 0 59183 30600.00000 0 14863007.164 17706035.638 -10654888.184 10 0 59183 31500.00000 0 15502228.851 18648278.141 -7717018.287 10 0 59183 32400.00000 0 16004675.787 19230426.197 -4628190.846 10 0 59183 33300.00000 0 16315960.204 19464905.871 -1448775.560 10 0 59183 34200.00000 0 16387093.121 19376307.570 1759005.803 10 0 59183 35100.00000 0 16176764.231 19000165.040 4932326.171 10 0 59183 36000.00000 0 15653309.129 18381278.967 8009016.128 10 0 59183 36900.00000 0 14796276.772 17571658.244 10928814.820 10 0 59183 37800.00000 0 13597527.733 16628169.089 13634580.885 10 0 59183 38700.00000 0 12061814.646 15609995.121 16073436.524 10 0 59183 39600.00000 0 10206819.408 14576019.630 18197819.672 10 0 59183 40500.00000 0 8062645.779 13582244.146 19966421.954 10 0 59183 41400.00000 0 5670789.906 12679355.074 21344993.286 10 0 59183 42300.00000 0 3082634.071 11910542.765 22306997.556 10 0 59183 43200.00000 0 357529.133 11309665.381 22834107.739 10 0 59183 44100.00000 0 -2439451.773 10899833.986 22916532.741 10 0 59183 45000.00000 0 -5239992.440 10692476.419 22553172.108 10 0 59183 45900.00000 0 -7975141.103 10686916.270 21751598.522 10 0 59183 46800.00000 0 -10577937.423 10870481.105 20527871.447 10 0 59183 47700.00000 0 -12985950.357 11219131.617 18906188.467 10 0 59183 48600.00000 0 -15143623.218 11698581.649 16918383.712 10 0 59183 49500.00000 0 -17004331.362 12265859.001 14603285.239 10 0 59183 50400.00000 0 -18532070.361 12871239.225 12005945.455 10 0 59183 51300.00000 0 -19702708.428 13460469.858 9176760.411 10 0 59183 52200.00000 0 -20504755.140 13977191.465 6170495.288 10 0 59183 53100.00000 0 -20939618.093 14365454.385 3045234.641 10 0 59183 54000.00000 0 -21021340.179 14572226.974 -138723.333 10 0 59183 54900.00000 0 -20775830.946 14549792.021 -3320008.561 10 0 59183 55800.00000 0 -20239625.594 14257932.957 -6437336.700 10 0 59183 56700.00000 0 -19458223.934 13665820.258 -9430662.487 10 0 59183 57600.00000 0 -18484078.098 12753520.556 -12242308.990 10 0 59183 58500.00000 0 -17374311.697 11513066.175 -14818053.402 10 0 59183 59400.00000 0 -16188263.671 9949040.272 -17108150.785 10 0 59183 60300.00000 0 -14984957.033 8078651.965 -19068278.150 10 0 59183 61200.00000 0 -13820595.884 5931296.106 -20660382.243 10 0 59183 62100.00000 0 -12746193.148 3547612.819 -21853415.813 10 0 59183 63000.00000 0 -11805426.636 978081.930 -22623948.568 10 0 59183 63900.00000 0 -11032812.446 -1718793.560 -22956640.579 10 0 59183 64800.00000 0 -10452272.358 -4478644.002 -22844567.870 10 0 59183 65700.00000 0 -10076156.515 -7233644.148 -22289391.949 10 0 59183 66600.00000 0 -9904764.535 -9915081.927 -21301367.390 10 0 59183 67500.00000 0 -9926387.998 -12455980.580 -19899184.270 10 0 59183 68400.00000 0 -10117875.761 -14793666.333 -18109645.155 10 0 59183 69300.00000 0 -10445701.503 -16872174.488 -15967179.582 10 0 59183 70200.00000 0 -10867491.284 -18644392.354 -13513202.480 10 0 59183 71100.00000 0 -11333948.615 -20073847.289 -10795326.494 10 0 59183 72000.00000 0 -11791096.564 -21136062.101 -7866442.006 10 0 59183 72900.00000 0 -12182741.630 -21819418.008 -4783682.123 10 0 59183 73800.00000 0 -12453053.363 -22125486.151 -1607293.233 10 0 59183 74700.00000 0 -12549147.617 -22068811.663 1600565.251 10 0 59183 75600.00000 0 -12423560.286 -21676158.372 4777066.154 10 0 59183 76500.00000 0 -12036502.530 -20985246.219 7859977.403 10 0 59183 77400.00000 0 -11357797.900 -20043036.130 10788914.239 10 0 59183 78300.00000 0 -10368415.690 -18903637.309 13506552.821 10 0 59183 79200.00000 0 -9061532.836 -17625928.678 15959778.265 10 0 59183 80100.00000 0 -7443077.829 -16270998.635 18100741.950 10 0 59183 81000.00000 0 -5531733.142 -14899514.814 19887805.638 10 0 59183 81900.00000 0 -3358396.630 -13569137.877 21286353.106 10 0 59183 82800.00000 0 -965126.074 -12332090.518 22269453.523 10 0 59183 83700.00000 0 1596386.736 -11232985.008 22818364.747 10 0 59183 84600.00000 0 4266746.232 -10307000.315 22922868.619 10 0 59183 85500.00000 0 6981104.626 -9578483.816 22581434.229 10 0 59184 0.00000 0 9671639.221 -9060033.540 21801208.891 10 0 59184 900.00000 0 12270151.442 -8752096.091 20597839.887 10 0 59184 1800.00000 0 14710679.291 -8643092.507 18995133.739 10 0 59184 2700.00000 0 16932015.519 -8710063.749 17024561.798 10 0 59184 3600.00000 0 18880029.473 -8919803.777 14724624.260 10 0 59184 4500.00000 0 20509698.197 -9230430.378 12140086.399 10 0 59184 5400.00000 0 21786766.416 -9593325.272 9321102.935 10 0 59184 6300.00000 0 22688969.846 -9955360.908 6322247.674 10 0 59184 7200.00000 0 23206774.538 -10261320.245 3201466.943 10 0 59184 8100.00000 0 23343605.034 -10456408.697 18976.190 10 0 59184 9000.00000 0 23115554.385 -10488754.211 -3163880.497 10 0 59184 9900.00000 0 22550590.044 -10311792.464 -6285787.664 10 0 59184 10800.00000 0 21687289.672 -9886439.212 -9286612.473 10 0 59184 11700.00000 0 20573159.329 -9182960.388 -12108535.579 10 0 59184 12600.00000 0 19262603.129 -8182462.914 -14697139.456 10 0 59184 13500.00000 0 17814627.214 -6877944.203 -17002435.607 10 0 59184 14400.00000 0 16290371.375 -5274855.834 -18979812.931 10 0 59184 15300.00000 0 14750568.731 -3391156.209 -20590890.610 10 0 59184 16200.00000 0 13253036.848 -1256847.192 -21804260.181 10 0 59184 17100.00000 0 11850302.915 1086989.676 -22596102.947 10 0 59184 18000.00000 0 10587460.681 3589621.496 -22950670.415 10 0 59184 18900.00000 0 9500348.142 6192502.059 -22860617.369 10 0 59184 19800.00000 0 8614122.558 8831447.702 -22327179.270 10 0 59184 20700.00000 0 7942293.886 11439064.343 -21360187.943 10 0 59184 21600.00000 0 7486259.294 13947327.851 -19977922.237 10 0 59184 22500.00000 0 7235361.050 16290212.260 -18206793.174 10 0 59184 23400.00000 0 7167468.312 18406256.837 -16080866.398 10 0 59184 24300.00000 0 7250061.099 20240964.220 -13641228.143 10 0 59184 25200.00000 0 7441772.883 21748927.560 -10935204.543 10 0 59184 26100.00000 0 7694327.964 22895594.843 -8015447.859 10 0 59184 27000.00000 0 7954791.751 23658593.272 -4938906.749 10 0 59184 27900.00000 0 8168037.556 24028554.919 -1765700.994 10 0 59184 28800.00000 0 8279323.003 24009406.151 1442075.821 10 0 59184 29700.00000 0 8236863.518 23618106.859 4621599.949 10 0 59184 30600.00000 0 7994289.747 22883849.744 7710580.142 10 0 59184 31500.00000 0 7512880.598 21846754.003 10648511.056 10 0 59184 32400.00000 0 6763473.267 20556110.335 13377889.455 10 0 59184 33300.00000 0 5727966.101 19068254.058 15845366.147 10 0 59184 34200.00000 0 4400348.365 17444159.510 18002808.394 10 0 59184 35100.00000 0 2787212.224 15746860.721 19808250.172 10 0 59184 36000.00000 0 907725.245 14038810.329 21226710.821 10 0 59184 36900.00000 0 -1206934.406 12379290.524 22230866.093 10 0 59184 37800.00000 0 -3514654.592 10821986.426 22801559.612 10 0 59184 38700.00000 0 -5963930.343 9412824.050 22928146.603 10 0 59184 39600.00000 0 -8495802.646 8188162.573 22608665.664 10 0 59184 40500.00000 0 -11046111.877 7173414.374 21849838.158 10 0 59184 41400.00000 0 -13547970.482 6382147.299 20666898.238 10 0 59184 42300.00000 0 -15934351.187 5815702.772 19083259.770 10 0 59184 43200.00000 0 -18140683.391 5463341.343 17130029.304 10 0 59184 44100.00000 0 -20107351.031 5302905.281 14845376.712 10 0 59184 45000.00000 0 -21781990.178 5301966.641 12273777.388 10 0 59184 45900.00000 0 -23121493.770 5419409.588 9465141.717 10 0 59184 46800.00000 0 -24093643.373 5607378.516 6473848.967 10 0 59184 47700.00000 0 -24678303.537 5813509.176 3357704.090 10 0 59184 48600.00000 0 -24868132.273 5983349.175 176836.659 10 0 59184 49500.00000 0 -24668780.842 6062867.037 -3007438.250 10 0 59184 50400.00000 0 -24098576.752 6000946.149 -6133776.958 10 0 59184 51300.00000 0 -23187704.207 5751760.753 -9141961.801 10 0 59184 52200.00000 0 -21976916.388 5276936.211 -11974033.609 10 0 59184 53100.00000 0 -20515832.428 4547404.593 -14575382.536 10 0 59184 54000.00000 0 -18860888.310 3544878.673 -16895778.676 10 0 59184 54900.00000 0 -17073024.738 2262882.678 -18890324.693 10 0 59184 55800.00000 0 -15215205.558 707295.620 -20520313.724 10 0 59184 56700.00000 0 -13349867.256 -1103617.654 -21753977.236 10 0 59184 57600.00000 0 -11536403.144 -3139692.230 -22567108.862 10 0 59184 58500.00000 0 -9828785.050 -5359849.421 -22943551.840 10 0 59184 59400.00000 0 -8273420.373 -7713547.051 -22875539.600 10 0 59184 60300.00000 0 -6907333.516 -10142637.991 -22363881.031 10 0 59184 61200.00000 0 -5756748.365 -12583563.847 -21417984.308 10 0 59184 62100.00000 0 -4836132.594 -14969796.076 -20055715.793 10 0 59184 63000.00000 0 -4147746.037 -17234425.439 -18303093.385 10 0 59184 63900.00000 0 -3681714.783 -19312792.996 -16193816.977 10 0 59184 64800.00000 0 -3416630.510 -21145052.774 -13768642.026 10 0 59184 65700.00000 0 -3320652.138 -22678557.575 -11074605.893 10 0 59184 66600.00000 0 -3353064.962 -23869965.519 -8164120.348 10 0 59184 67500.00000 0 -3466231.920 -24686975.801 -5093947.145 10 0 59184 68400.00000 0 -3607853.839 -25109617.314 -1924076.970 10 0 59184 69300.00000 0 -3723441.093 -25131032.627 1283464.918 10 0 59184 70200.00000 0 -3758888.978 -24757721.716 4465860.705 10 0 59184 71100.00000 0 -3663043.841 -24009233.575 7560762.456 10 0 59184 72000.00000 0 -3390147.022 -22917318.321 10507546.723 10 0 59184 72900.00000 0 -2902048.828 -21524576.475 13248533.291 10 0 59184 73800.00000 0 -2170095.032 -19882664.422 15730140.985 10 0 59184 74700.00000 0 -1176603.201 -18050134.631 17903955.112 10 0 59184 75600.00000 0 84135.435 -16090004.975 19727683.804 10 0 59184 76500.00000 0 1605371.527 -14067162.804 21165983.620 10 0 59184 77400.00000 0 3367950.501 -12045715.849 22191138.230 10 0 59184 78300.00000 0 5340899.213 -10086403.207 22783577.998 10 0 59184 79200.00000 0 7482519.716 -8244175.873 22932232.140 10 0 59184 80100.00000 0 9741941.898 -6566047.797 22634709.021 10 0 59184 81000.00000 0 12061067.766 -5089305.682 21897304.000 10 0 59184 81900.00000 0 14376824.289 -3840149.442 20734837.650 10 0 59184 82800.00000 0 16623629.513 -2832816.426 19170330.518 10 0 59184 83700.00000 0 18735968.820 -2069221.572 17234523.375 10 0 59184 84600.00000 0 20650974.581 -1539123.968 14965254.506 10 0 59184 85500.00000 0 22310903.283 -1220808.524 12406707.856 10 0 59185 0.00000 0 23665409.324 -1082250.434 9608547.678 10 0 59185 900.00000 0 24673523.453 -1082710.691 6624956.440 10 0 59185 1800.00000 0 25305257.243 -1174694.029 3513595.334 10 0 59185 2700.00000 0 25542768.588 -1306186.156 334505.354 10 0 59185 3600.00000 0 25381044.079 -1423076.797 -2851030.309 10 0 59185 4500.00000 0 24828070.884 -1471667.826 -5981642.744 10 0 59185 5400.00000 0 23904492.941 -1401162.917 -8997032.460 10 0 59185 6300.00000 0 22642766.083 -1166036.129 -11839103.345 10 0 59185 7200.00000 0 21085846.720 -728181.897 -14453055.968 10 0 59185 8100.00000 0 19285467.220 -58757.636 -16788421.549 10 0 59185 9000.00000 0 17300067.494 860357.626 -18800018.816 10 0 59185 9900.00000 0 15192466.068 2035549.965 -20448816.945 10 0 59185 10800.00000 0 13027364.417 3460946.517 -21702689.182 10 0 59185 11700.00000 0 10868785.371 5118405.108 -22537043.101 10 0 59185 12600.00000 0 8777549.562 6978021.494 -22935315.036 10 0 59185 13500.00000 0 6808892.983 8999137.290 -22889318.132 10 0 59185 14400.00000 0 5010323.754 11131811.151 -22399435.440 10 0 59185 15300.00000 0 3419807.404 13318696.336 -21474651.836 10 0 59185 16200.00000 0 2064357.259 15497250.415 -20132421.122 10 0 59185 17100.00000 0 959090.513 17602188.122 -18398367.561 10 0 59185 18000.00000 0 106791.894 19568076.820 -16305824.290 10 0 59185 18900.00000 0 -501994.297 21331966.755 -13895214.510 10 0 59185 19800.00000 0 -888345.227 22835945.249 -11213284.859 10 0 59185 20700.00000 0 -1083837.817 24029505.687 -8312204.204 10 0 59185 21600.00000 0 -1128970.604 24871628.915 -5248544.594 10 0 59185 22500.00000 0 -1071195.942 25332486.005 -2082164.471 10 0 59185 23400.00000 0 -962647.106 25394687.074 1124982.619 10 0 59185 24300.00000 0 -857659.005 25054020.311 4310088.347 10 0 59185 25200.00000 0 -810190.996 24319647.637 7410751.678 10 0 59185 26100.00000 0 -871265.076 23213747.417 10366234.581 10 0 59185 27000.00000 0 -1086532.245 21770619.280 13118683.234 10 0 59185 27900.00000 0 -1494074.184 20035289.979 15614287.618 10 0 59185 28800.00000 0 -2122536.628 18061681.295 17804353.949 10 0 59185 29700.00000 0 -2989675.777 15910420.109 19646267.060 10 0 59185 30600.00000 0 -4101380.426 13646385.911 21104322.912 10 0 59185 31500.00000 0 -5451211.077 11336101.890 22150414.890 10 0 59185 32400.00000 0 -7020474.472 9045081.443 22764561.480 10 0 59185 33300.00000 0 -8778828.622 6835242.672 22935266.803 10 0 59185 34200.00000 0 -10685390.516 4762499.380 22659709.411 10 0 59185 35100.00000 0 -12690297.651 2874628.122 21943758.531 10 0 59185 36000.00000 0 -14736655.735 1209498.056 20801820.493 10 0 59185 36900.00000 0 -16762789.347 -206265.870 19256521.280 10 0 59185 37800.00000 0 -18704700.513 -1358134.804 17338234.102 10 0 59185 38700.00000 0 -20498632.571 -2244012.059 15084463.393 10 0 59185 39600.00000 0 -22083633.106 -2874043.899 12539098.966 10 0 59185 40500.00000 0 -23404010.717 -3269917.243 9751555.806 10 0 59185 41400.00000 0 -24411585.657 -3463677.303 6775816.588 10 0 59185 42300.00000 0 -25067643.087 -3496117.206 3669395.273 10 0 59185 43200.00000 0 -25344510.469 -3414808.711 492240.898 10 0 59185 44100.00000 0 -25226696.168 -3271857.059 -2694398.584 10 0 59185 45000.00000 0 -24711544.010 -3121473.618 -5829132.271 10 0 59185 45900.00000 0 -23809378.198 -3017466.868 -8851581.948 10 0 59185 46800.00000 0 -22543133.169 -3010755.211 -11703517.515 10 0 59185 47700.00000 0 -20947483.553 -3147004.017 -14329952.709 10 0 59185 48600.00000 0 -19067509.199 -3464484.261 -16680182.371 10 0 59185 49500.00000 0 -16956948.640 -3992241.340 -18708743.479 10 0 59185 50400.00000 0 -14676110.837 -4748650.397 -20376283.052 10 0 59185 51300.00000 0 -12289528.764 -5740419.303 -21650317.468 10 0 59185 52200.00000 0 -9863448.923 -6962082.795 -22505869.107 10 0 59185 53100.00000 0 -7463258.083 -8396011.714 -22925967.750 10 0 59185 54000.00000 0 -5150951.548 -10012940.700 -22902006.102 10 0 59185 54900.00000 0 -2982746.415 -11772996.607 -22433940.756 10 0 59185 55800.00000 0 -1006938.417 -13627189.140 -21530332.240 10 0 59185 56700.00000 0 737908.209 -15519305.763 -20208220.379 10 0 59185 57600.00000 0 2224361.172 -17388135.301 -18492834.048 10 0 59185 58500.00000 0 3437050.371 -19169929.794 -16417137.620 10 0 59185 59400.00000 0 4373086.674 -20801002.891 -14021219.797 10 0 59185 60300.00000 0 5041949.189 -22220355.787 -11351534.068 10 0 59185 61200.00000 0 5464843.603 -23372219.007 -8460003.840 10 0 59185 62100.00000 0 5673557.162 -24208400.625 -5403008.791 10 0 59185 63000.00000 0 5708858.166 -24690338.687 -2240272.411 10 0 59185 63900.00000 0 5618508.260 -24790767.543 966326.209 10 0 59185 64800.00000 0 5454973.545 -24494924.157 4153990.920 10 0 59185 65700.00000 0 5272934.398 -23801240.374 7260270.248 10 0 59185 66600.00000 0 5126703.236 -22721489.750 10224314.126 10 0 59185 67500.00000 0 5067663.828 -21280381.792 12988097.545 10 0 59185 68400.00000 0 5141844.782 -19514620.986 15497583.877 10 0 59185 69300.00000 0 5387733.619 -17471471.762 17703802.239 10 0 59185 70200.00000 0 5834426.780 -15206892.202 19563815.871 10 0 59185 71100.00000 0 6500195.532 -12783317.807 21041561.519 10 0 59185 72000.00000 0 7391528.861 -10267191.481 22108543.310 10 0 59185 72900.00000 0 8502693.108 -7726345.903 22744368.506 10 0 59185 73800.00000 0 9815825.340 -5227349.715 22937116.432 10 0 59185 74700.00000 0 11301554.169 -2832929.428 22683535.779 10 0 59185 75600.00000 0 12920119.368 -599574.222 21989069.300 10 0 59185 76500.00000 0 14622940.692 1424578.111 20867708.449 10 0 59185 77400.00000 0 16354567.844 3201488.704 19341683.782 10 0 59185 78300.00000 0 18054928.407 4704529.644 17440999.865 10 0 59185 79200.00000 0 19661778.869 5919310.216 15202826.006 10 0 59185 80100.00000 0 21113256.357 6843987.552 12670756.377 10 0 59185 81000.00000 0 22350425.569 7489053.324 9893955.047 10 0 59185 81900.00000 0 23319716.250 7876609.470 6926202.856 10 0 59185 82800.00000 0 23975151.678 8039166.415 3824864.425 10 0 59185 83700.00000 0 24280277.912 8018016.449 649794.514 10 0 59185 84600.00000 0 24209715.717 7861251.479 -2537796.626 10 0 59185 85500.00000 0 23750272.851 7621508.391 -5676498.670 99